AIC137 LFKX-EGHC

Flight info

Callsign AIC137
Flight time 2h 7m
Altitude 28000
Route GIGUS DCT BELUS DCT BARAN A2 BUSIL DCT OKASI DCT OLZOM DCT TABOV UN491 LGL UN502 JSY DCT DOLUR
Aircraft TBM8/L-SDFGRWY/S

Departure

Time 2026-05-05 14:31
Airport Méribel Altiport (LFKX)

Arrival

Time 2026-05-05 16:39
Airport Land's End Airport (EGHC)
Time Latitude Longitude Altitude Speed Heading
2026-05-05 14:29 45.40572 6.57880 5676 ft 0 kts
2026-05-05 14:30 45.40573 6.57880 5676 ft 0 kts 339°
2026-05-05 14:30 45.40579 6.57876 5679 ft 8 kts 338°
2026-05-05 14:30 45.40763 6.57759 5630 ft 57 kts 335°
2026-05-05 14:30 45.41286 6.57421 5425 ft 111 kts 335°
2026-05-05 14:31 45.42150 6.56878 5239 ft 161 kts 335°
2026-05-05 14:31 45.42843 6.55742 5932 ft 147 kts 281°
2026-05-05 14:31 45.42755 6.54338 6499 ft 143 kts 256°
2026-05-05 14:31 45.42619 6.52936 6940 ft 144 kts 266°
2026-05-05 14:32 45.42701 6.51531 7370 ft 144 kts 275°
2026-05-05 14:32 45.42937 6.50098 7849 ft 148 kts 280°
2026-05-05 14:32 45.43141 6.49186 8131 ft 151 kts 282°
2026-05-05 14:32 45.43497 6.47761 8505 ft 155 kts 282°
2026-05-05 14:33 45.43868 6.46314 8962 ft 153 kts 284°
2026-05-05 14:33 45.44257 6.44929 9382 ft 154 kts 288°
2026-05-05 14:33 45.44647 6.43480 9830 ft 156 kts 283°
2026-05-05 14:33 45.45041 6.42036 10310 ft 156 kts 286°
2026-05-05 14:34 45.45456 6.40597 10733 ft 157 kts 284°
2026-05-05 14:34 45.45855 6.39161 11208 ft 156 kts 284°
2026-05-05 14:34 45.46220 6.37813 11598 ft 156 kts 283°
2026-05-05 14:34 45.46619 6.36384 12045 ft 155 kts 285°
2026-05-05 14:35 45.47022 6.34973 12400 ft 156 kts 282°
2026-05-05 14:35 45.47409 6.33509 12756 ft 155 kts 283°
2026-05-05 14:35 45.47801 6.32113 13242 ft 153 kts 281°
2026-05-05 14:35 45.48174 6.30704 13687 ft 152 kts 281°
2026-05-05 14:36 45.48558 6.29297 14049 ft 153 kts 281°
2026-05-05 14:36 45.48947 6.27883 14403 ft 153 kts 281°
2026-05-05 14:36 45.49338 6.26467 14761 ft 154 kts 281°
2026-05-05 14:36 45.49729 6.25045 15116 ft 155 kts 280°
2026-05-05 14:37 45.50119 6.23606 15445 ft 156 kts 280°
2026-05-05 14:37 45.50515 6.22164 15818 ft 157 kts 280°
2026-05-05 14:37 45.50917 6.20707 16176 ft 158 kts 280°
2026-05-05 14:37 45.51318 6.19239 16550 ft 159 kts 279°
2026-05-05 14:38 45.51720 6.17765 16898 ft 160 kts 280°
2026-05-05 14:38 45.52128 6.16288 17254 ft 160 kts 280°
2026-05-05 14:38 45.52534 6.14802 17601 ft 161 kts 280°
2026-05-05 14:38 45.52940 6.13312 17939 ft 162 kts 279°
2026-05-05 14:39 45.53347 6.11816 18272 ft 162 kts 279°
2026-05-05 14:39 45.53757 6.10314 18571 ft 163 kts 279°
2026-05-05 14:39 45.54169 6.08809 18881 ft 163 kts 279°
2026-05-05 14:39 45.54577 6.07304 19193 ft 163 kts 279°
2026-05-05 14:40 45.54987 6.05795 19488 ft 163 kts 279°
2026-05-05 14:40 45.55400 6.04275 19823 ft 165 kts 279°
2026-05-05 14:40 45.55815 6.02753 20118 ft 165 kts 279°
2026-05-05 14:40 45.56224 6.01228 20358 ft 165 kts 278°
2026-05-05 14:41 45.56634 5.99701 20627 ft 165 kts 280°
2026-05-05 14:41 45.57060 5.98174 20938 ft 166 kts 279°
2026-05-05 14:41 45.57479 5.96644 21231 ft 166 kts 279°
2026-05-05 14:41 45.57895 5.95107 21527 ft 166 kts 279°
2026-05-05 14:42 45.58311 5.93568 21810 ft 167 kts 279°
2026-05-05 14:42 45.58728 5.92023 22096 ft 167 kts 279°
2026-05-05 14:42 45.59144 5.90475 22382 ft 167 kts 279°
2026-05-05 14:42 45.59558 5.88918 22655 ft 168 kts 279°
2026-05-05 14:43 45.59973 5.87359 22919 ft 168 kts 278°
2026-05-05 14:43 45.60389 5.85793 23179 ft 170 kts 279°
2026-05-05 14:43 45.60815 5.84145 23178 ft 183 kts 280°
2026-05-05 14:43 45.61283 5.82395 23149 ft 193 kts 281°
2026-05-05 14:44 45.61781 5.80569 23268 ft 201 kts 282°
2026-05-05 14:44 45.62297 5.78684 23460 ft 206 kts 282°
2026-05-05 14:44 45.62821 5.76756 23634 ft 210 kts 282°
2026-05-05 14:44 45.63353 5.74792 23810 ft 213 kts 282°
2026-05-05 14:45 45.63886 5.72801 23965 ft 215 kts 282°
2026-05-05 14:45 45.64420 5.70794 24142 ft 217 kts 282°
2026-05-05 14:45 45.64962 5.68796 24498 ft 210 kts 282°
2026-05-05 14:45 45.65474 5.66929 25029 ft 194 kts 281°
2026-05-05 14:46 45.65944 5.65194 25469 ft 182 kts 279°
2026-05-05 14:46 45.66389 5.63531 25770 ft 178 kts 279°
2026-05-05 14:46 45.66820 5.61869 25974 ft 178 kts 278°
2026-05-05 14:46 45.67248 5.60232 26206 ft 178 kts 278°
2026-05-05 14:47 45.67684 5.58578 26415 ft 177 kts 278°
2026-05-05 14:47 45.68063 5.56914 26614 ft 176 kts 275°
2026-05-05 14:47 45.68403 5.55237 26811 ft 176 kts 274°
2026-05-05 14:47 45.68735 5.53558 27005 ft 176 kts 274°
2026-05-05 14:48 45.69070 5.51872 27198 ft 176 kts 274°
2026-05-05 14:48 45.69408 5.50187 27382 ft 177 kts 274°
2026-05-05 14:48 45.69751 5.48496 27604 ft 178 kts 274°
2026-05-05 14:48 45.70099 5.46775 27732 ft 182 kts 275°
2026-05-05 14:49 45.70457 5.45034 27871 ft 185 kts 275°
2026-05-05 14:49 45.70826 5.43223 27880 ft 194 kts 275°
2026-05-05 14:49 45.71215 5.41328 27894 ft 204 kts 276°
2026-05-05 14:49 45.71626 5.39338 27901 ft 213 kts 276°
2026-05-05 14:50 45.72055 5.37264 27904 ft 222 kts 277°
2026-05-05 14:50 45.72501 5.35105 27903 ft 230 kts 277°
2026-05-05 14:50 45.72963 5.32868 27898 ft 238 kts 277°
2026-05-05 14:50 45.73438 5.30560 27893 ft 245 kts 277°
2026-05-05 14:51 45.73925 5.28190 27895 ft 252 kts 278°
2026-05-05 14:51 45.74423 5.25760 27907 ft 257 kts 278°
2026-05-05 14:51 45.74932 5.23275 27906 ft 263 kts 278°
2026-05-05 14:51 45.75657 5.20819 27890 ft 280 kts 296°
2026-05-05 14:52 45.77179 5.18931 27885 ft 301 kts 320°
2026-05-05 14:52 45.78984 5.17370 27882 ft 304 kts 321°
2026-05-05 14:52 45.80803 5.15790 27883 ft 307 kts 321°
2026-05-05 14:52 45.82631 5.14197 27882 ft 309 kts 321°
2026-05-05 14:53 45.84473 5.12588 27878 ft 311 kts 320°
2026-05-05 14:53 45.86327 5.10961 27904 ft 313 kts 322°
2026-05-05 14:53 45.88191 5.09317 27889 ft 316 kts 322°
2026-05-05 14:53 45.90067 5.07663 27879 ft 317 kts 322°
2026-05-05 14:54 45.91954 5.05997 27886 ft 319 kts 322°
2026-05-05 14:54 45.93845 5.04319 27880 ft 320 kts 322°
2026-05-05 14:54 45.95738 5.02620 27875 ft 321 kts 321°
2026-05-05 14:54 45.97632 5.00914 27873 ft 322 kts 321°
2026-05-05 14:55 45.99529 4.99202 27871 ft 322 kts 321°
2026-05-05 14:55 46.01432 4.97484 27870 ft 323 kts 321°
2026-05-05 14:55 46.03335 4.95765 27869 ft 323 kts 321°
2026-05-05 14:55 46.05240 4.94044 27869 ft 324 kts 321°
2026-05-05 14:56 46.07150 4.92316 27871 ft 324 kts 322°
2026-05-05 14:56 46.09060 4.90587 27867 ft 325 kts 323°
2026-05-05 14:56 46.10951 4.88877 27867 ft 325 kts 322°
2026-05-05 14:56 46.12893 4.87118 27865 ft 326 kts 322°
2026-05-05 14:57 46.14810 4.85379 27863 ft 326 kts 322°
2026-05-05 14:57 46.16704 4.83661 27864 ft 326 kts 322°
2026-05-05 14:57 46.18649 4.81895 27865 ft 326 kts 322°
2026-05-05 14:57 46.20544 4.80172 27865 ft 326 kts 322°
2026-05-05 14:58 46.22463 4.78425 27890 ft 326 kts 323°
2026-05-05 14:58 46.24384 4.76673 27875 ft 327 kts 323°
2026-05-05 14:58 46.26310 4.74919 27862 ft 327 kts 323°
2026-05-05 14:58 46.28235 4.73166 27858 ft 327 kts 324°
2026-05-05 14:59 46.30159 4.71404 27862 ft 328 kts 324°
2026-05-05 14:59 46.32037 4.69536 27865 ft 327 kts 321°
2026-05-05 14:59 46.33875 4.67595 27866 ft 327 kts 320°
2026-05-05 14:59 46.35705 4.65637 27869 ft 328 kts 320°
2026-05-05 15:00 46.37539 4.63677 27862 ft 328 kts 320°
2026-05-05 15:00 46.38755 4.62378 27866 ft 328 kts 320°
2026-05-05 15:00 46.41221 4.59773 27871 ft 328 kts 321°
2026-05-05 15:00 46.43069 4.57829 27870 ft 329 kts 321°
2026-05-05 15:01 46.44922 4.55883 27866 ft 329 kts 321°
2026-05-05 15:01 46.46773 4.53939 27864 ft 329 kts 321°
2026-05-05 15:01 46.48627 4.51992 27862 ft 329 kts 321°
2026-05-05 15:01 46.50481 4.50045 27849 ft 329 kts 321°
2026-05-05 15:02 46.52335 4.48097 27863 ft 329 kts 321°
2026-05-05 15:02 46.54194 4.46141 27864 ft 330 kts 321°
2026-05-05 15:02 46.56050 4.44187 27852 ft 330 kts 321°
2026-05-05 15:02 46.57908 4.42227 27866 ft 330 kts 322°
2026-05-05 15:03 46.59771 4.40261 27860 ft 331 kts 322°
2026-05-05 15:03 46.61633 4.38295 27861 ft 331 kts 322°
2026-05-05 15:03 46.63496 4.36327 27853 ft 331 kts 322°
2026-05-05 15:03 46.65362 4.34353 27856 ft 331 kts 322°
2026-05-05 15:04 46.67226 4.32380 27851 ft 332 kts 322°
2026-05-05 15:04 46.69093 4.30401 27855 ft 332 kts 322°
2026-05-05 15:04 46.70327 4.29092 27853 ft 332 kts 322°
2026-05-05 15:04 46.72195 4.27109 27854 ft 332 kts 322°
2026-05-05 15:05 46.75922 4.23148 27837 ft 332 kts 322°
2026-05-05 15:05 46.78414 4.20495 27843 ft 332 kts 322°
2026-05-05 15:05 46.79650 4.19178 27841 ft 332 kts 322°
2026-05-05 15:06 46.81513 4.17193 27845 ft 332 kts 322°
2026-05-05 15:06 46.83377 4.15204 27844 ft 332 kts 322°
2026-05-05 15:06 46.85239 4.13216 27844 ft 332 kts 322°
2026-05-05 15:06 46.87100 4.11227 27848 ft 332 kts 322°
2026-05-05 15:07 46.88965 4.09233 27854 ft 332 kts 322°
2026-05-05 15:07 46.90827 4.07238 27860 ft 332 kts 322°
2026-05-05 15:07 46.92693 4.05237 27850 ft 332 kts 322°
2026-05-05 15:07 46.94559 4.03237 27848 ft 332 kts 322°
2026-05-05 15:08 46.96423 4.01237 27844 ft 332 kts 322°
2026-05-05 15:08 46.98288 3.99232 27841 ft 332 kts 322°
2026-05-05 15:08 47.00151 3.97230 27839 ft 332 kts 322°
2026-05-05 15:08 47.02011 3.95227 27840 ft 332 kts 322°
2026-05-05 15:09 47.03874 3.93220 27839 ft 332 kts 322°
2026-05-05 15:09 47.05734 3.91216 27838 ft 332 kts 322°
2026-05-05 15:09 47.07595 3.89207 27829 ft 332 kts 322°
2026-05-05 15:09 47.09451 3.87201 27837 ft 332 kts 322°
2026-05-05 15:10 47.11308 3.85192 27838 ft 332 kts 322°
2026-05-05 15:10 47.13165 3.83183 27837 ft 332 kts 322°
2026-05-05 15:10 47.15025 3.81168 27833 ft 332 kts 322°
2026-05-05 15:10 47.16883 3.79155 27830 ft 332 kts 322°
2026-05-05 15:11 47.18717 3.77164 27830 ft 332 kts 322°
2026-05-05 15:11 47.20600 3.75119 27829 ft 332 kts 322°
2026-05-05 15:11 47.22433 3.73125 27828 ft 332 kts 322°
2026-05-05 15:11 47.24289 3.71105 27830 ft 332 kts 322°
2026-05-05 15:12 47.26145 3.69084 27824 ft 332 kts 322°
2026-05-05 15:12 47.28003 3.67057 27825 ft 332 kts 322°
2026-05-05 15:12 47.29859 3.65033 27823 ft 332 kts 322°
2026-05-05 15:12 47.31713 3.63008 27826 ft 332 kts 322°
2026-05-05 15:13 47.33571 3.60978 27821 ft 332 kts 322°
2026-05-05 15:13 47.35424 3.58951 27822 ft 332 kts 322°
2026-05-05 15:13 47.37277 3.56922 27823 ft 331 kts 322°
2026-05-05 15:13 47.39127 3.54894 27822 ft 331 kts 322°
2026-05-05 15:14 47.40975 3.52867 27825 ft 331 kts 322°
2026-05-05 15:14 47.42825 3.50836 27824 ft 331 kts 322°
2026-05-05 15:14 47.44673 3.48806 27823 ft 331 kts 322°
2026-05-05 15:14 47.46522 3.46772 27822 ft 331 kts 322°
2026-05-05 15:15 47.48372 3.44735 27823 ft 331 kts 322°
2026-05-05 15:15 47.50220 3.42699 27818 ft 331 kts 322°
2026-05-05 15:15 47.52070 3.40659 27816 ft 331 kts 322°
2026-05-05 15:15 47.53916 3.38622 27815 ft 331 kts 322°
2026-05-05 15:16 47.55760 3.36585 27810 ft 331 kts 322°
2026-05-05 15:16 47.57606 3.34543 27823 ft 331 kts 322°
2026-05-05 15:16 47.59452 3.32504 27822 ft 331 kts 323°
2026-05-05 15:16 47.61297 3.30460 27818 ft 331 kts 323°
2026-05-05 15:17 47.63143 3.28412 27815 ft 331 kts 322°
2026-05-05 15:17 47.64985 3.26366 27814 ft 331 kts 323°
2026-05-05 15:17 47.66828 3.24319 27816 ft 331 kts 323°
2026-05-05 15:17 47.68667 3.22274 27810 ft 331 kts 322°
2026-05-05 15:18 47.70484 3.20251 27808 ft 331 kts 322°
2026-05-05 15:18 47.72323 3.18203 27810 ft 331 kts 322°
2026-05-05 15:18 47.74188 3.16124 27809 ft 331 kts 322°
2026-05-05 15:18 47.76003 3.14096 27799 ft 330 kts 323°
2026-05-05 15:19 47.77839 3.12045 27802 ft 330 kts 323°
2026-05-05 15:19 47.79676 3.09992 27804 ft 330 kts 323°
2026-05-05 15:19 47.81507 3.07946 27805 ft 329 kts 323°
2026-05-05 15:19 47.83337 3.05897 27803 ft 329 kts 323°
2026-05-05 15:20 47.85166 3.03848 27808 ft 329 kts 323°
2026-05-05 15:20 47.86994 3.01797 27806 ft 329 kts 323°
2026-05-05 15:20 47.88827 2.99739 27817 ft 330 kts 323°
2026-05-05 15:20 47.90658 2.97680 27825 ft 330 kts 323°
2026-05-05 15:21 47.92491 2.95619 27829 ft 330 kts 324°
2026-05-05 15:21 47.94325 2.93558 27814 ft 329 kts 324°
2026-05-05 15:21 47.96150 2.91499 27827 ft 329 kts 324°
2026-05-05 15:21 47.97971 2.89443 27807 ft 328 kts 324°
2026-05-05 15:22 47.99791 2.87389 27808 ft 327 kts 324°
2026-05-05 15:22 48.01603 2.85344 27806 ft 326 kts 324°
2026-05-05 15:22 48.03408 2.83287 27801 ft 326 kts 322°
2026-05-05 15:22 48.05080 2.81002 27802 ft 326 kts 315°
2026-05-05 15:23 48.06543 2.78412 27802 ft 327 kts 307°
2026-05-05 15:23 48.07779 2.75560 27798 ft 327 kts 300°
2026-05-05 15:23 48.08767 2.72504 27799 ft 327 kts 292°
2026-05-05 15:23 48.09492 2.69289 27804 ft 327 kts 285°
2026-05-05 15:24 48.10009 2.65981 27800 ft 326 kts 282°
2026-05-05 15:24 48.10481 2.62667 27802 ft 326 kts 282°
2026-05-05 15:24 48.10941 2.59395 27810 ft 326 kts 282°
2026-05-05 15:24 48.11412 2.56031 27837 ft 326 kts 282°
2026-05-05 15:25 48.11871 2.52744 27814 ft 327 kts 282°
2026-05-05 15:25 48.12336 2.49415 27797 ft 327 kts 282°
2026-05-05 15:25 48.12807 2.46043 27792 ft 327 kts 282°
2026-05-05 15:25 48.13266 2.42760 27788 ft 326 kts 282°
2026-05-05 15:26 48.13729 2.39441 27789 ft 326 kts 282°
2026-05-05 15:26 48.14191 2.36125 27783 ft 325 kts 282°
2026-05-05 15:26 48.14653 2.32808 27783 ft 325 kts 282°
2026-05-05 15:26 48.15139 2.29508 27781 ft 324 kts 287°
2026-05-05 15:27 48.16068 2.26456 27781 ft 322 kts 304°
2026-05-05 15:27 48.17549 2.23974 27782 ft 319 kts 322°
2026-05-05 15:27 48.19284 2.21903 27783 ft 319 kts 322°
2026-05-05 15:27 48.20990 2.19769 27775 ft 319 kts 321°
2026-05-05 15:28 48.22685 2.17617 27781 ft 320 kts 321°
2026-05-05 15:28 48.24384 2.15461 27783 ft 320 kts 321°
2026-05-05 15:28 48.26086 2.13311 27790 ft 320 kts 322°
2026-05-05 15:28 48.27791 2.11164 27789 ft 320 kts 322°
2026-05-05 15:29 48.29502 2.09013 27789 ft 320 kts 322°
2026-05-05 15:29 48.31211 2.06865 27789 ft 321 kts 322°
2026-05-05 15:29 48.32922 2.04715 27781 ft 321 kts 322°
2026-05-05 15:29 48.34636 2.02562 27798 ft 321 kts 322°
2026-05-05 15:30 48.36350 2.00408 27807 ft 322 kts 322°
2026-05-05 15:30 48.38067 1.98247 27815 ft 322 kts 322°
2026-05-05 15:30 48.39789 1.96078 27824 ft 323 kts 322°
2026-05-05 15:30 48.41512 1.93906 27833 ft 324 kts 322°
2026-05-05 15:31 48.43241 1.91727 27815 ft 325 kts 321°
2026-05-05 15:31 48.44975 1.89535 27794 ft 325 kts 321°
2026-05-05 15:31 48.46707 1.87343 27811 ft 326 kts 321°
2026-05-05 15:31 48.48444 1.85144 27814 ft 326 kts 321°
2026-05-05 15:32 48.50178 1.82945 27806 ft 326 kts 321°
2026-05-05 15:32 48.51913 1.80744 27802 ft 326 kts 321°
2026-05-05 15:32 48.53652 1.78538 27811 ft 326 kts 321°
2026-05-05 15:32 48.55388 1.76333 27810 ft 326 kts 321°
2026-05-05 15:33 48.57102 1.74153 27819 ft 326 kts 321°
2026-05-05 15:33 48.58859 1.71908 27831 ft 327 kts 321°
2026-05-05 15:33 48.60468 1.69544 27828 ft 328 kts 314°
2026-05-05 15:33 48.61929 1.66887 27828 ft 329 kts 308°
2026-05-05 15:34 48.63204 1.64014 27820 ft 330 kts 302°
2026-05-05 15:34 48.64281 1.60952 27828 ft 330 kts 295°
2026-05-05 15:34 48.65148 1.57734 27826 ft 330 kts 289°
2026-05-05 15:34 48.65793 1.54403 27835 ft 330 kts 283°
2026-05-05 15:35 48.66277 1.51006 27833 ft 330 kts 281°
2026-05-05 15:35 48.66735 1.47607 27827 ft 330 kts 281°
2026-05-05 15:35 48.67188 1.44205 27833 ft 330 kts 281°
2026-05-05 15:35 48.67641 1.40799 27832 ft 330 kts 281°
2026-05-05 15:36 48.68092 1.37398 27842 ft 330 kts 281°
2026-05-05 15:36 48.68543 1.33998 27842 ft 330 kts 281°
2026-05-05 15:36 48.68994 1.30593 27840 ft 330 kts 281°
2026-05-05 15:36 48.69445 1.27192 27849 ft 330 kts 281°
2026-05-05 15:37 48.69894 1.23789 27846 ft 330 kts 281°
2026-05-05 15:37 48.70343 1.20382 27855 ft 330 kts 281°
2026-05-05 15:37 48.70791 1.16979 27851 ft 330 kts 281°
2026-05-05 15:37 48.71238 1.13571 27851 ft 330 kts 281°
2026-05-05 15:38 48.71683 1.10168 27848 ft 330 kts 281°
2026-05-05 15:38 48.72128 1.06763 27857 ft 330 kts 281°
2026-05-05 15:38 48.72573 1.03358 27866 ft 330 kts 281°
2026-05-05 15:38 48.73016 0.99946 27865 ft 330 kts 281°
2026-05-05 15:39 48.73458 0.96539 27865 ft 330 kts 281°
2026-05-05 15:39 48.73900 0.93126 27863 ft 330 kts 281°
2026-05-05 15:39 48.74339 0.89719 27859 ft 330 kts 281°
2026-05-05 15:39 48.74778 0.86313 27859 ft 329 kts 281°
2026-05-05 15:40 48.75217 0.82906 27860 ft 329 kts 281°
2026-05-05 15:40 48.75656 0.79505 27860 ft 329 kts 281°
2026-05-05 15:40 48.76094 0.76102 27860 ft 329 kts 281°
2026-05-05 15:40 48.76530 0.72703 27859 ft 329 kts 281°
2026-05-05 15:41 48.76964 0.69306 27860 ft 328 kts 281°
2026-05-05 15:41 48.77398 0.65903 27852 ft 328 kts 281°
2026-05-05 15:41 48.77831 0.62507 27861 ft 328 kts 281°
2026-05-05 15:41 48.78263 0.59109 27861 ft 328 kts 281°
2026-05-05 15:42 48.78694 0.55706 27853 ft 328 kts 281°
2026-05-05 15:42 48.79125 0.52307 27871 ft 328 kts 281°
2026-05-05 15:42 48.79629 0.48976 27876 ft 329 kts 284°
2026-05-05 15:42 48.80241 0.45639 27879 ft 329 kts 286°
2026-05-05 15:43 48.80880 0.42310 27884 ft 329 kts 286°
2026-05-05 15:43 48.81519 0.38972 27866 ft 329 kts 286°
2026-05-05 15:43 48.82148 0.35635 27869 ft 329 kts 286°
2026-05-05 15:43 48.82769 0.32289 27872 ft 329 kts 285°
2026-05-05 15:44 48.83380 0.28947 27867 ft 329 kts 285°
2026-05-05 15:44 48.83987 0.25602 27872 ft 329 kts 285°
2026-05-05 15:44 48.84591 0.22250 27868 ft 329 kts 285°
2026-05-05 15:44 48.85191 0.18903 27874 ft 329 kts 285°
2026-05-05 15:45 48.85791 0.15549 27895 ft 329 kts 285°
2026-05-05 15:45 48.86389 0.12192 27892 ft 330 kts 285°
2026-05-05 15:45 48.86988 0.08825 27888 ft 330 kts 285°
2026-05-05 15:45 48.87586 0.05459 27888 ft 330 kts 285°
2026-05-05 15:46 48.88183 0.02090 27873 ft 330 kts 285°
2026-05-05 15:46 48.88779 -0.01274 27892 ft 330 kts 285°
2026-05-05 15:46 48.89374 -0.04641 27890 ft 330 kts 285°
2026-05-05 15:46 48.89969 -0.08016 27886 ft 330 kts 285°
2026-05-05 15:47 48.90561 -0.11387 27878 ft 330 kts 285°
2026-05-05 15:47 48.90953 -0.13621 27884 ft 331 kts 285°
2026-05-05 15:47 48.91746 -0.18146 27889 ft 331 kts 285°
2026-05-05 15:47 48.92338 -0.21528 27890 ft 331 kts 285°
2026-05-05 15:48 48.92921 -0.24867 27891 ft 331 kts 285°
2026-05-05 15:48 48.93506 -0.28249 27893 ft 331 kts 284°
2026-05-05 15:48 48.94082 -0.31641 27893 ft 331 kts 284°
2026-05-05 15:48 48.94652 -0.35027 27895 ft 331 kts 284°
2026-05-05 15:49 48.95221 -0.38413 27904 ft 331 kts 284°
2026-05-05 15:49 48.95792 -0.41804 27904 ft 330 kts 284°
2026-05-05 15:49 48.96361 -0.45192 27902 ft 331 kts 284°
2026-05-05 15:49 48.96927 -0.48578 27905 ft 331 kts 284°
2026-05-05 15:50 48.97495 -0.51974 27909 ft 331 kts 284°
2026-05-05 15:50 48.98062 -0.55369 27907 ft 331 kts 284°
2026-05-05 15:50 48.98630 -0.58774 27910 ft 332 kts 284°
2026-05-05 15:50 48.99197 -0.62179 27906 ft 332 kts 284°
2026-05-05 15:51 48.99763 -0.65585 27908 ft 332 kts 284°
2026-05-05 15:51 49.00330 -0.68997 27908 ft 332 kts 284°
2026-05-05 15:51 49.00894 -0.72404 27910 ft 332 kts 284°
2026-05-05 15:51 49.01457 -0.75813 27901 ft 332 kts 284°
2026-05-05 15:52 49.02017 -0.79217 27909 ft 331 kts 284°
2026-05-05 15:52 49.02577 -0.82626 27906 ft 331 kts 284°
2026-05-05 15:52 49.03136 -0.86032 27905 ft 332 kts 284°
2026-05-05 15:52 49.03696 -0.89443 27912 ft 331 kts 284°
2026-05-05 15:53 49.04252 -0.92851 27909 ft 332 kts 284°
2026-05-05 15:53 49.04809 -0.96260 27906 ft 332 kts 284°
2026-05-05 15:53 49.05365 -0.99675 27905 ft 332 kts 284°
2026-05-05 15:53 49.05919 -1.03085 27906 ft 331 kts 284°
2026-05-05 15:54 49.06472 -1.06493 27910 ft 331 kts 284°
2026-05-05 15:54 49.07026 -1.09908 27913 ft 331 kts 284°
2026-05-05 15:54 49.07576 -1.13317 27914 ft 331 kts 284°
2026-05-05 15:54 49.07941 -1.15575 27908 ft 331 kts 283°
2026-05-05 15:55 49.08674 -1.20135 27907 ft 330 kts 283°
2026-05-05 15:55 49.09039 -1.22386 27909 ft 330 kts 284°
2026-05-05 15:55 49.09592 -1.25787 27911 ft 330 kts 283°
2026-05-05 15:55 49.10323 -1.30294 27916 ft 330 kts 283°
2026-05-05 15:56 49.10696 -1.32593 27913 ft 330 kts 283°
2026-05-05 15:56 49.11424 -1.37102 27909 ft 330 kts 283°
2026-05-05 15:56 49.11794 -1.39401 27909 ft 330 kts 283°
2026-05-05 15:56 49.12518 -1.43901 27913 ft 329 kts 283°
2026-05-05 15:57 49.12886 -1.46200 27918 ft 329 kts 283°
2026-05-05 15:57 49.13606 -1.50697 27917 ft 329 kts 283°
2026-05-05 15:57 49.13972 -1.52989 27916 ft 329 kts 283°
2026-05-05 15:57 49.14512 -1.56376 27915 ft 328 kts 283°
2026-05-05 15:58 49.15051 -1.59763 27918 ft 328 kts 283°
2026-05-05 15:58 49.15588 -1.63148 27918 ft 328 kts 283°
2026-05-05 15:58 49.16118 -1.66491 27918 ft 328 kts 283°
2026-05-05 15:58 49.16652 -1.69874 27918 ft 328 kts 283°
2026-05-05 15:59 49.17186 -1.73260 27918 ft 328 kts 283°
2026-05-05 15:59 49.17719 -1.76645 27918 ft 328 kts 283°
2026-05-05 15:59 49.18250 -1.80031 27918 ft 328 kts 283°
2026-05-05 15:59 49.18781 -1.83418 27915 ft 327 kts 283°
2026-05-05 16:00 49.19309 -1.86795 27919 ft 327 kts 283°
2026-05-05 16:00 49.19837 -1.90172 27929 ft 327 kts 283°
2026-05-05 16:00 49.20363 -1.93549 27931 ft 326 kts 283°
2026-05-05 16:00 49.20887 -1.96919 27939 ft 325 kts 283°
2026-05-05 16:01 49.21409 -2.00279 27940 ft 325 kts 283°
2026-05-05 16:01 49.21931 -2.03649 27933 ft 326 kts 283°
2026-05-05 16:01 49.22431 -2.07030 27952 ft 326 kts 281°
2026-05-05 16:01 49.22809 -2.10452 27949 ft 327 kts 278°
2026-05-05 16:02 49.23127 -2.13895 27945 ft 327 kts 277°
2026-05-05 16:02 49.23437 -2.17350 27942 ft 328 kts 277°
2026-05-05 16:02 49.23751 -2.20798 27940 ft 327 kts 277°
2026-05-05 16:02 49.24075 -2.24248 27942 ft 327 kts 278°
2026-05-05 16:03 49.24404 -2.27694 27943 ft 327 kts 278°
2026-05-05 16:03 49.24736 -2.31133 27946 ft 327 kts 278°
2026-05-05 16:03 49.25071 -2.34569 27943 ft 327 kts 278°
2026-05-05 16:03 49.25408 -2.38012 27949 ft 327 kts 278°
2026-05-05 16:04 49.25743 -2.41451 27948 ft 327 kts 278°
2026-05-05 16:04 49.26078 -2.44892 27948 ft 327 kts 278°
2026-05-05 16:04 49.26413 -2.48342 27953 ft 327 kts 278°
2026-05-05 16:04 49.26746 -2.51787 27957 ft 327 kts 278°
2026-05-05 16:05 49.27078 -2.55232 27960 ft 327 kts 278°
2026-05-05 16:05 49.27410 -2.58681 27960 ft 327 kts 278°
2026-05-05 16:05 49.27741 -2.62124 27955 ft 327 kts 278°
2026-05-05 16:05 49.28071 -2.65565 27957 ft 326 kts 278°
2026-05-05 16:06 49.28399 -2.69000 27960 ft 326 kts 277°
2026-05-05 16:06 49.28725 -2.72431 27960 ft 326 kts 277°
2026-05-05 16:06 49.29049 -2.75864 27960 ft 325 kts 277°
2026-05-05 16:06 49.29373 -2.79293 27960 ft 325 kts 277°
2026-05-05 16:07 49.29695 -2.82720 27951 ft 325 kts 277°
2026-05-05 16:07 49.30017 -2.86150 27954 ft 325 kts 277°
2026-05-05 16:07 49.30337 -2.89574 27954 ft 325 kts 277°
2026-05-05 16:07 49.30656 -2.92999 27951 ft 324 kts 277°
2026-05-05 16:08 49.30974 -2.96417 27948 ft 324 kts 277°
2026-05-05 16:08 49.31286 -2.99795 27954 ft 324 kts 277°
2026-05-05 16:08 49.31606 -3.03260 27956 ft 324 kts 277°
2026-05-05 16:08 49.31921 -3.06679 27960 ft 324 kts 277°
2026-05-05 16:09 49.32231 -3.10058 27961 ft 324 kts 277°
2026-05-05 16:09 49.32543 -3.13481 27957 ft 324 kts 277°
2026-05-05 16:09 49.32854 -3.16902 27961 ft 324 kts 276°
2026-05-05 16:09 49.33165 -3.20327 27967 ft 324 kts 277°
2026-05-05 16:10 49.33474 -3.23745 27964 ft 324 kts 277°
2026-05-05 16:10 49.33783 -3.27162 27958 ft 324 kts 276°
2026-05-05 16:10 49.34090 -3.30584 27963 ft 324 kts 276°
2026-05-05 16:10 49.34395 -3.34001 27963 ft 324 kts 276°
2026-05-05 16:11 49.34700 -3.37419 27963 ft 324 kts 276°
2026-05-05 16:11 49.35609 -3.47693 27965 ft 324 kts 276°
2026-05-05 16:12 49.35909 -3.51114 27972 ft 324 kts 276°
2026-05-05 16:12 49.36507 -3.57953 27973 ft 324 kts 276°
2026-05-05 16:13 49.37397 -3.68225 27974 ft 324 kts 276°
2026-05-05 16:13 49.37692 -3.71649 27974 ft 324 kts 276°
2026-05-05 16:13 49.37985 -3.75080 27973 ft 324 kts 276°
2026-05-05 16:14 49.38571 -3.81938 27980 ft 324 kts 276°
2026-05-05 16:14 49.39151 -3.88793 27973 ft 324 kts 276°
2026-05-05 16:15 49.39729 -3.95655 27979 ft 324 kts 276°
2026-05-05 16:15 49.40302 -4.02520 27979 ft 324 kts 275°
2026-05-05 16:16 49.40871 -4.09380 27985 ft 324 kts 275°
2026-05-05 16:16 49.41433 -4.16228 27986 ft 323 kts 275°
2026-05-05 16:17 49.41992 -4.23072 27988 ft 323 kts 275°
2026-05-05 16:17 49.42266 -4.26449 27988 ft 323 kts 275°
2026-05-05 16:18 49.42818 -4.33287 27990 ft 322 kts 275°
2026-05-05 16:18 49.43093 -4.36702 27992 ft 322 kts 275°
2026-05-05 16:18 49.43638 -4.43538 27991 ft 322 kts 275°
2026-05-05 16:19 49.43909 -4.46952 27993 ft 322 kts 275°
2026-05-05 16:19 49.44178 -4.50360 27994 ft 321 kts 275°
2026-05-05 16:19 49.44714 -4.57153 27993 ft 319 kts 275°
2026-05-05 16:20 49.45242 -4.63919 27993 ft 318 kts 275°
2026-05-05 16:20 49.45764 -4.70665 27993 ft 317 kts 275°
2026-05-05 16:21 49.46280 -4.77394 27993 ft 317 kts 275°
2026-05-05 16:22 49.47048 -4.87473 27999 ft 316 kts 275°
2026-05-05 16:22 49.47554 -4.94190 27999 ft 316 kts 275°
2026-05-05 16:23 49.48056 -5.00904 27997 ft 316 kts 275°
2026-05-05 16:23 49.48361 -5.04246 27995 ft 317 kts 283°
2026-05-05 16:23 49.51159 -5.09320 27993 ft 320 kts 326°
2026-05-05 16:24 49.53068 -5.11085 28000 ft 320 kts 330°
2026-05-05 16:24 49.55015 -5.12767 27997 ft 321 kts 330°
2026-05-05 16:25 49.60787 -5.17987 28008 ft 321 kts 328°
2026-05-05 16:25 49.66457 -5.23464 27997 ft 320 kts 326°
2026-05-05 16:26 49.73945 -5.30827 28011 ft 318 kts 326°
2026-05-05 16:27 49.77677 -5.34519 28010 ft 318 kts 326°
2026-05-05 16:27 49.79540 -5.36365 28000 ft 318 kts 326°
2026-05-05 16:27 49.81403 -5.38215 28011 ft 318 kts 326°
2026-05-05 16:28 49.85124 -5.41911 28004 ft 317 kts 325°
2026-05-05 16:28 49.88833 -5.45610 28015 ft 316 kts 324°
2026-05-05 16:29 49.90674 -5.47418 27417 ft 301 kts 327°
2026-05-05 16:29 49.92317 -5.48939 27115 ft 243 kts 326°
2026-05-05 16:29 49.93592 -5.50188 27049 ft 191 kts 323°
2026-05-05 16:29 49.94524 -5.51150 26979 ft 139 kts 319°
2026-05-05 16:30 49.95325 -5.52020 26296 ft 147 kts 319°
2026-05-05 16:30 49.96186 -5.52927 25536 ft 151 kts 322°
2026-05-05 16:30 49.97069 -5.53806 24802 ft 150 kts 321°
2026-05-05 16:30 49.97942 -5.54679 24082 ft 148 kts 322°
2026-05-05 16:31 49.98801 -5.55541 23343 ft 146 kts 324°
2026-05-05 16:31 49.99649 -5.56387 22521 ft 143 kts 324°
2026-05-05 16:31 50.00473 -5.57216 21734 ft 142 kts 324°
2026-05-05 16:31 50.01295 -5.58038 20953 ft 140 kts 326°
2026-05-05 16:32 50.02105 -5.58850 20190 ft 136 kts 327°
2026-05-05 16:32 50.02897 -5.59644 19448 ft 135 kts 328°
2026-05-05 16:32 50.03676 -5.60426 18723 ft 131 kts 330°
2026-05-05 16:32 50.04429 -5.61183 17971 ft 127 kts 331°
2026-05-05 16:33 50.05174 -5.61924 17165 ft 128 kts 329°
2026-05-05 16:33 50.05922 -5.62671 16372 ft 127 kts 327°
2026-05-05 16:33 50.06576 -5.63563 15598 ft 127 kts 303°
2026-05-05 16:33 50.06772 -5.64887 14846 ft 129 kts 265°
2026-05-05 16:34 50.06382 -5.66117 14107 ft 130 kts 227°
2026-05-05 16:34 50.05567 -5.66687 13332 ft 133 kts 187°
2026-05-05 16:34 50.04686 -5.66343 12537 ft 134 kts 148°
2026-05-05 16:34 50.03964 -5.65430 11784 ft 133 kts 137°
2026-05-05 16:35 50.03272 -5.64489 11037 ft 132 kts 140°
2026-05-05 16:35 50.02629 -5.63484 10294 ft 131 kts 119°
2026-05-05 16:35 50.02461 -5.62130 9514 ft 128 kts 76°
2026-05-05 16:35 50.02852 -5.60975 8710 ft 118 kts 36°
2026-05-05 16:36 50.03564 -5.60494 7929 ft 109 kts 358°
2026-05-05 16:36 50.04270 -5.60801 7167 ft 106 kts 323°
2026-05-05 16:36 50.04707 -5.61667 6441 ft 101 kts 296°
2026-05-05 16:36 50.04982 -5.62681 5687 ft 103 kts 295°
2026-05-05 16:37 50.05341 -5.63620 4928 ft 100 kts 311°
2026-05-05 16:37 50.05890 -5.64293 4201 ft 99 kts 332°
2026-05-05 16:37 50.06509 -5.64720 3477 ft 96 kts 341°
2026-05-05 16:37 50.07126 -5.65078 2742 ft 95 kts 343°
2026-05-05 16:38 50.07740 -5.65469 1997 ft 96 kts 342°
2026-05-05 16:38 50.08349 -5.65861 1235 ft 92 kts 345°
2026-05-05 16:38 50.08946 -5.66222 670 ft 94 kts 343°
2026-05-05 16:38 50.09558 -5.66613 505 ft 92 kts 338°
2026-05-05 16:39 50.10053 -5.66918 395 ft 62 kts 332°
2026-05-05 16:39 50.10369 -5.67113 399 ft 32 kts 337°
2026-05-05 16:39 50.10418 -5.67146 396 ft 0 kts 339°
2026-05-05 16:40 50.09734 -5.66734 460 ft 97 kts 342°
2026-05-05 16:41 50.10173 -5.66993 396 ft 67 kts 338°
2026-05-05 16:41 50.10122 -5.66963 396 ft 71 kts 341°
2026-05-05 16:41 50.09755 -5.66735 465 ft 86 kts 345°
2026-05-05 16:41 50.10085 -5.66937 397 ft 64 kts 337°
2026-05-05 16:42 50.10366 -5.67125 399 ft 0 kts 337°